Weather History for Great Bend, KS

Change the Weather History Date:

Friday, September 7, 2012

  Actual Average Record
Temperature  
Mean Temperature 63 °F -  
Max Temperature 71 °F 89 °F 105 °F (1971)
Min Temperature 55 °F 64 °F 42 °F (1957)
Degree Days  
Heating Degree Days 2    
Growing Degree Days 13 (Base 50)    
Moisture  
Dew Point 53 °F    
Average Humidity 66    
Maximum Humidity 88    
Minimum Humidity 46    
Precipitation  
Precipitation 0.17 in - - ()
Sea Level Pressure  
Sea Level Pressure 30.02 in    
Wind  
Wind Speed 14 mph (North)    
Max Wind Speed 32 mph    
Max Gust Speed 44 mph    
Visibility 10 miles    
Events Thunderstorm    
Averages and records for this station are not official NWS values.
T = Trace of Precipitation, MM = Missing Value Source: NWS Daily Summary

Daily Weather History Graph

Daily Weather History Graph

Search for Another Location

Airport:

Trip Planner

Search our weather history database for the weather conditions in past years. The results will help you decide how hot, cold, wet, or windy it might be!

Date:

Astronomy

Sep. 07, 2012 Rise Set
Actual Time 7:10 AM CDT 7:55 PM CDT
Civil Twilight 6:43 AM CDT 8:21 PM CDT
Nautical Twilight 6:12 AM CDT 8:53 PM CDT
Astronomical Twilight 5:39 AM CDT 9:26 PM CDT
Moon 11:58 PM CDT (9/7) 1:58 PM CDT (9/7)
Length of Visible Light 13h 38m
Length of Day
12h 44m
Waning Gibbous, 58% of the Moon is Illuminated
Sep 7
Waning Gibbous
Sep 8
Last Quarter
Sep 15
New
Sep 22
First Quarter
Sep 29
Full

Hourly Weather History & Observations

Time (CDT) Temp. Dew Point Humidity Pressure Visibility Wind Dir Wind Speed Gust Speed Precip Events Conditions
12:15 AM 71.6 °F 62.6 °F 73% 29.89 in 10.0 mi SW 18.4 mph 25.3 mph N/A   Clear
12:35 AM 71.6 °F 59.0 °F 64% 29.88 in 10.0 mi SSW 19.6 mph 23.0 mph N/A   Clear
12:55 AM 69.8 °F 57.2 °F 64% 29.88 in 10.0 mi SSW 16.1 mph 20.7 mph N/A   Clear
1:15 AM 69.8 °F 57.2 °F 64% 29.88 in 10.0 mi SSW 15.0 mph - N/A   Clear
1:35 AM 69.8 °F 57.2 °F 64% 29.87 in 10.0 mi SSW 16.1 mph 23.0 mph N/A   Clear
1:55 AM 69.8 °F 57.2 °F 64% 29.87 in 10.0 mi South 15.0 mph - N/A   Clear
2:15 AM 68.0 °F 57.2 °F 68% 29.86 in 10.0 mi South 15.0 mph 20.7 mph N/A   Clear
2:35 AM 68.0 °F 57.2 °F 68% 29.85 in 10.0 mi SSW 11.5 mph - N/A   Clear
2:55 AM 66.2 °F 57.2 °F 73% 29.85 in 10.0 mi South 8.1 mph - N/A   Clear
3:15 AM 64.4 °F 57.2 °F 77% 29.85 in 10.0 mi SSW 4.6 mph - N/A   Clear
3:35 AM 64.4 °F 57.2 °F 77% 29.85 in 10.0 mi South 8.1 mph - N/A   Clear
3:55 AM 66.2 °F 57.2 °F 73% 29.84 in 10.0 mi SSW 10.4 mph - N/A   Clear
4:15 AM 66.2 °F 57.2 °F 73% 29.85 in 10.0 mi Calm Calm - N/A   Clear
4:35 AM 64.4 °F 57.2 °F 77% 29.85 in 10.0 mi SW 5.8 mph - N/A   Clear
4:55 AM 64.4 °F 57.2 °F 77% 29.85 in 10.0 mi Calm Calm - N/A   Clear
5:15 AM 64.4 °F 57.2 °F 77% 29.85 in 10.0 mi Calm Calm - N/A   Clear
5:35 AM 64.4 °F 57.2 °F 77% 29.89 in 10.0 mi North 10.4 mph - N/A   Clear
5:55 AM 64.4 °F 57.2 °F 77% 29.90 in 10.0 mi North 10.4 mph - N/A   Clear
6:15 AM 64.4 °F 57.2 °F 77% 29.90 in 10.0 mi North 6.9 mph - N/A   Clear
6:35 AM 64.4 °F 57.2 °F 77% 29.90 in 10.0 mi North 5.8 mph - N/A   Clear
6:55 AM 66.2 °F 57.2 °F 73% 29.92 in 10.0 mi NNW 9.2 mph - N/A   Clear
7:15 AM 66.2 °F 59.0 °F 78% 29.93 in 10.0 mi North 10.4 mph - N/A   Clear
7:35 AM 66.2 °F 59.0 °F 78% 29.95 in 10.0 mi North 11.5 mph - N/A   Clear
7:55 AM 68.0 °F 57.2 °F 68% 29.97 in 10.0 mi North 16.1 mph 21.9 mph N/A   Mostly Cloudy
8:15 AM 68.0 °F 55.4 °F 64% 29.98 in 10.0 mi North 18.4 mph 23.0 mph N/A   Overcast
8:35 AM 68.0 °F 53.6 °F 60% 29.98 in 10.0 mi NNE 17.3 mph 25.3 mph N/A   Overcast
8:55 AM 69.8 °F 51.8 °F 53% 29.97 in 10.0 mi NNE 17.3 mph 28.8 mph N/A   Mostly Cloudy
9:15 AM 69.8 °F 51.8 °F 53% 29.96 in 10.0 mi NNE 21.9 mph 29.9 mph N/A   Partly Cloudy
9:35 AM 69.8 °F 51.8 °F 53% 29.99 in 10.0 mi NNE 23.0 mph 28.8 mph N/A   Mostly Cloudy
9:55 AM 69.8 °F 48.2 °F 46% 30.00 in 10.0 mi NNE 20.7 mph 28.8 mph N/A   Overcast
10:15 AM 69.8 °F 48.2 °F 46% 30.01 in 10.0 mi NNE 24.2 mph 29.9 mph N/A   Overcast
10:35 AM 69.8 °F 48.2 °F 46% 30.00 in 10.0 mi NNE 21.9 mph 28.8 mph N/A   Overcast
10:55 AM 69.8 °F 48.2 °F 46% 30.02 in 10.0 mi NNE 19.6 mph 31.1 mph N/A   Overcast
11:15 AM 69.8 °F 48.2 °F 46% 30.03 in 10.0 mi NNE 17.3 mph 29.9 mph N/A   Overcast
11:35 AM 68.0 °F 48.2 °F 49% 30.06 in 10.0 mi North 23.0 mph 29.9 mph N/A   Overcast
11:55 AM 66.2 °F 48.2 °F 52% 30.02 in 10.0 mi NNE 32.2 mph 43.7 mph N/A Thunderstorm Overcast
12:15 PM 60.8 °F 51.8 °F 72% 30.09 in 10.0 mi North 21.9 mph 28.8 mph N/A Thunderstorm Overcast
12:35 PM 60.8 °F 51.8 °F 72% 30.08 in 10.0 mi NNE 20.7 mph 32.2 mph N/A   Overcast
12:55 PM 60.8 °F 51.8 °F 72% 30.08 in 10.0 mi NNE 23.0 mph 28.8 mph N/A   Overcast
1:15 PM 59.0 °F 51.8 °F 77% 30.15 in 10.0 mi North 17.3 mph 31.1 mph N/A Thunderstorm Thunderstorm
1:35 PM 57.2 °F 51.8 °F 82% 30.12 in 6.0 mi North 21.9 mph 31.1 mph 0.16 in Thunderstorm Thunderstorm
1:55 PM 57.2 °F 53.6 °F 88% 30.10 in 10.0 mi NE 20.7 mph - 0.17 in Thunderstorm Overcast
2:15 PM 59.0 °F 53.6 °F 82% 30.10 in 10.0 mi NE 18.4 mph - N/A   Overcast
2:35 PM 60.8 °F 55.4 °F 82% 30.11 in 10.0 mi North 20.7 mph 28.8 mph N/A   Overcast
2:55 PM 60.8 °F 55.4 °F 82% 30.11 in 10.0 mi NNE 17.3 mph 26.5 mph N/A   Overcast
3:15 PM 62.6 °F 53.6 °F 72% 30.11 in 10.0 mi NNE 20.7 mph 26.5 mph N/A   Mostly Cloudy
3:35 PM 64.4 °F 53.6 °F 68% 30.10 in 10.0 mi NNE 20.7 mph 28.8 mph N/A   Scattered Clouds
3:55 PM 64.4 °F 51.8 °F 64% 30.10 in 10.0 mi NNE 17.3 mph 28.8 mph N/A   Clear
4:15 PM 68.0 °F 53.6 °F 60% 30.10 in 10.0 mi NNE 18.4 mph 24.2 mph N/A   Clear
4:55 PM 68.0 °F 53.6 °F 60% 30.11 in 10.0 mi North 18.4 mph 21.9 mph N/A   Clear
5:15 PM 69.8 °F 51.8 °F 53% 30.10 in 10.0 mi North 17.3 mph 24.2 mph N/A   Clear
5:35 PM 69.8 °F 51.8 °F 53% 30.10 in 10.0 mi North 17.3 mph 24.2 mph N/A   Clear
5:55 PM 69.8 °F 48.2 °F 46% 30.11 in 10.0 mi North 13.8 mph 24.2 mph N/A   Clear
6:15 PM 68.0 °F 48.2 °F 49% 30.12 in 10.0 mi North 15.0 mph - N/A   Clear
6:35 PM 68.0 °F 50.0 °F 52% 30.12 in 10.0 mi NNE 15.0 mph 19.6 mph N/A   Clear
6:55 PM 69.8 °F 50.0 °F 49% 30.11 in 10.0 mi NNE 16.1 mph - N/A   Clear
7:15 PM 69.8 °F 48.2 °F 46% 30.12 in 10.0 mi North 13.8 mph 21.9 mph N/A   Clear
7:35 PM 66.2 °F 50.0 °F 56% 30.12 in 10.0 mi North 12.7 mph - N/A   Clear
7:55 PM 64.4 °F 50.0 °F 59% 30.13 in 10.0 mi North 9.2 mph - N/A   Clear
8:15 PM 62.6 °F 50.0 °F 63% 30.14 in 10.0 mi North 8.1 mph - N/A   Clear
8:35 PM 62.6 °F 50.0 °F 63% 30.15 in 10.0 mi North 8.1 mph - N/A   Clear
8:55 PM 60.8 °F 50.0 °F 68% 30.16 in 10.0 mi NNW 5.8 mph - N/A   Clear
9:15 PM 60.8 °F 50.0 °F 68% 30.17 in 10.0 mi NNW 5.8 mph - N/A   Clear
9:35 PM 59.0 °F 50.0 °F 72% 30.17 in 10.0 mi NNW 6.9 mph - N/A   Clear
9:55 PM 57.2 °F 48.2 °F 72% 30.18 in 10.0 mi NNW 6.9 mph - N/A   Clear
10:15 PM 57.2 °F 48.2 °F 72% 30.18 in 10.0 mi NW 6.9 mph - N/A   Clear
10:35 PM 55.4 °F 48.2 °F 77% 30.18 in 10.0 mi NW 6.9 mph - N/A   Clear
10:55 PM 55.4 °F 48.2 °F 77% 30.19 in 10.0 mi NW 8.1 mph - N/A   Clear
11:35 PM 55.4 °F 48.2 °F 77% 30.20 in 10.0 mi NW 8.1 mph - N/A   Clear
11:55 PM 55.4 °F 48.2 °F 77% 30.20 in 10.0 mi NW 10.4 mph - N/A   Clear